Date String (YYYY-MM-DD hh:mm:ss) UTC,Instrument flags,absolute air pressure of the measurement (hPa),sample flow rate (lpm),inlet stack bypass flow (lpm),air temperature of the measurement (°C),ambient temperature measured by the external sensor (°C),aerosol sample conditioner tube jacket temperature (°C),OPC LED temperature (°C),internal box temperature (°C),relative humidity of the measurement (%),span deviation,mass concentration of particles derived from Lorenz-Mie calculation of OPC scattering (μg/m³),mass concentration of particles derived from Lorenz-Mie calculation of OPC scattering (μg/m³),mass concentration of particles derived from Lorenz-Mie calculation of OPC scattering (μg/m³)
DateTimeUTC,F1_M11,P_M11,Q1_M11,Q2_M11,T1_M11,T2_M11,T3_M11,T4_M11,T5_M11,U1_M11,ZSPAN_M11,X2_M11,X0_M11,X1_M11
2024-01-10 18:00:00,SystemResetWarning,0813.2,5.00,000.00,019.0,018.4,000.0,027.2,020.0,6.9,0000.0,0002.16,0014.99,0000.45
2024-01-10 18:01:00,SystemResetWarning,0813.1,4.99,000.00,019.0,018.1,000.0,027.2,020.0,6.9,0000.0,0002.18,0015.22,0000.45
2024-01-10 18:02:00,SystemResetWarning,0813.1,4.99,000.00,018.9,017.9,000.0,027.3,020.0,6.8,0000.0,0002.19,0014.66,0000.45
2024-01-10 18:03:00,SystemResetWarning,0813.1,5.01,000.00,018.9,017.7,000.0,027.3,020.0,6.8,0000.0,0001.83,0013.01,0000.44
2024-01-10 18:04:00,SystemResetWarning,0813.1,5.01,000.00,018.9,017.6,000.0,027.3,020.0,6.8,0000.0,0001.35,0010.90,0000.41
2024-01-10 18:05:00,SystemResetWarning,0813.0,5.00,000.00,018.8,017.5,000.0,027.3,020.0,6.7,0000.0,0001.32,0011.09,0000.40
2024-01-10 18:06:00,SystemResetWarning,0812.9,5.00,000.00,018.8,017.4,000.0,027.3,020.0,6.5,0000.0,0001.28,0010.64,0000.40
2024-01-10 18:07:00,SystemResetWarning,0812.8,4.99,000.00,018.8,017.3,000.0,027.3,020.0,6.4,0000.0,0001.22,0009.46,0000.39
2024-01-10 18:08:00,SystemResetWarning,0812.9,5.00,000.00,018.8,017.3,000.0,027.2,020.0,6.3,0000.0,0001.28,0011.01,0000.40
2024-01-10 18:09:00,SystemResetWarning,0812.9,5.00,000.00,018.7,017.2,000.0,027.3,020.0,6.3,0000.0,0001.29,0011.77,0000.40
2024-01-10 18:10:00,SystemResetWarning,0812.8,5.01,000.00,018.8,017.6,000.0,027.2,020.3,6.3,0000.0,0001.28,0012.19,0000.40
2024-01-10 18:11:00,SystemResetWarning,0812.8,5.00,000.00,018.9,018.7,000.0,027.2,020.8,6.3,0000.0,0001.25,0012.10,0000.41
2024-01-10 18:12:00,SystemResetWarning,0812.8,4.98,000.00,019.1,019.3,000.0,027.3,021.0,6.3,0000.0,0001.31,0012.40,0000.40
2024-01-10 18:13:00,SystemResetWarning,0812.7,5.01,000.00,019.1,019.2,000.0,027.3,020.6,6.3,0000.0,0001.31,0013.00,0000.39
2024-01-10 18:14:00,SystemResetWarning,0812.8,5.01,000.00,019.1,018.9,000.0,027.3,020.4,6.3,0000.0,0001.28,0012.86,0000.37
2024-01-10 18:15:00,SystemResetWarning,0812.6,4.99,000.00,019.0,018.7,000.0,027.3,020.3,6.4,0000.0,0001.27,0011.39,0000.35
2024-01-10 18:16:00,SystemResetWarning,0812.6,5.00,000.00,018.9,018.5,000.0,027.2,020.1,6.4,0000.0,0001.09,0009.51,0000.34
2024-01-10 18:17:00,SystemResetWarning,0812.6,5.00,000.00,018.9,018.2,000.0,027.2,020.0,6.4,0000.0,0001.05,0009.20,0000.33
2024-01-10 18:18:00,SystemResetWarning,0812.6,5.00,000.00,018.8,018.0,000.0,027.3,020.0,6.5,0000.0,0001.01,0008.64,0000.33
2024-01-10 18:19:00,SystemResetWarning,0812.6,5.01,000.00,018.9,017.8,000.0,027.3,020.0,6.6,0000.0,0000.89,0006.47,0000.31
2024-01-10 18:20:00,SystemResetWarning,0812.6,5.01,000.00,018.8,017.6,000.0,027.3,020.0,6.6,0000.0,0000.84,0005.00,0000.30
2024-01-10 18:21:00,SystemResetWarning,0812.6,4.99,000.00,018.8,017.5,000.0,027.3,020.0,6.7,0000.0,0000.85,0004.34,0000.30
2024-01-10 18:22:00,SystemResetWarning,0812.5,4.99,000.00,018.8,017.4,000.0,027.3,020.0,6.8,0000.0,0000.90,0004.59,0000.30
2024-01-10 18:23:00,SystemResetWarning,0812.5,5.01,000.00,018.8,017.3,000.0,027.3,020.0,6.7,0000.0,0000.93,0006.17,0000.32
2024-01-10 18:24:00,SystemResetWarning,0812.5,5.02,000.00,018.8,017.2,000.0,027.3,020.0,6.6,0000.0,0000.93,0005.42,0000.31
2024-01-10 18:25:00,SystemResetWarning,0812.5,4.99,000.00,018.8,017.2,000.0,027.3,020.0,6.7,0000.0,0000.92,0005.50,0000.32
2024-01-10 18:26:00,SystemResetWarning,0812.6,4.99,000.00,018.8,017.1,000.0,027.3,020.0,6.7,0000.0,0000.90,0005.40,0000.33
2024-01-10 18:27:00,SystemResetWarning,0812.6,5.00,000.00,018.8,017.1,000.0,027.3,020.1,6.8,0000.0,0000.92,0005.46,0000.33
2024-01-10 18:28:00,SystemResetWarning,0812.4,5.02,000.00,018.8,017.9,000.0,027.2,020.5,6.8,0000.0,0000.95,0005.86,0000.33
2024-01-10 18:29:00,SystemResetWarning,0812.4,5.00,000.00,019.0,019.0,000.0,027.2,021.0,6.5,0000.0,0001.02,0007.04,0000.35
2024-01-10 18:30:00,SystemResetWarning,0812.4,4.99,000.00,019.1,019.2,000.0,027.3,020.8,6.5,0000.0,0001.05,0007.43,0000.35
2024-01-10 18:31:00,SystemResetWarning,0812.4,4.99,000.00,019.1,019.0,000.0,027.3,020.5,6.5,0000.0,0001.13,0007.87,0000.35
2024-01-10 18:32:00,SystemResetWarning,0812.4,5.01,000.00,019.1,018.8,000.0,027.3,020.4,6.4,0000.0,0001.21,0008.60,0000.36
2024-01-10 18:33:00,SystemResetWarning,0812.5,5.00,000.00,019.0,018.6,000.0,027.3,020.2,6.3,0000.0,0001.18,0008.65,0000.35
2024-01-10 18:34:00,SystemResetWarning,0812.4,5.00,000.00,019.0,018.3,000.0,027.2,020.0,6.4,0000.0,0001.07,0007.46,0000.33
2024-01-10 18:35:00,SystemResetWarning,0812.5,5.00,000.00,018.9,018.0,000.0,027.2,020.0,6.6,0000.0,0001.05,0007.57,0000.34
2024-01-10 18:36:00,SystemResetWarning,0812.5,5.00,000.00,018.9,017.8,000.0,027.3,020.0,6.8,0000.0,0001.02,0008.05,0000.34
2024-01-10 18:37:00,SystemResetWarning,0812.4,5.00,000.00,018.9,017.7,000.0,027.3,020.0,6.9,0000.0,0000.98,0008.11,0000.33
2024-01-10 18:38:00,SystemResetWarning,0812.4,4.99,000.00,018.8,017.5,000.0,027.3,020.0,6.9,0000.0,0000.96,0008.15,0000.32
2024-01-10 18:39:00,SystemResetWarning,0812.3,4.99,000.00,018.8,017.4,000.0,027.3,020.0,6.8,0000.0,0000.91,0007.96,0000.32
2024-01-10 18:40:00,SystemResetWarning,0812.2,5.02,000.00,018.8,017.4,000.0,027.3,020.0,6.7,0000.0,0000.81,0007.26,0000.30
2024-01-10 18:41:00,SystemResetWarning,0812.3,5.00,000.00,018.8,017.3,000.0,027.3,020.0,6.7,0000.0,0000.79,0006.79,0000.30
2024-01-10 18:42:00,SystemResetWarning,0812.2,4.99,000.00,018.8,017.3,000.0,027.3,020.0,6.8,0000.0,0000.71,0005.93,0000.30
2024-01-10 18:43:00,SystemResetWarning,0812.1,4.99,000.00,018.8,017.2,000.0,027.3,020.0,6.9,0000.0,0000.63,0004.56,0000.30
2024-01-10 18:44:00,SystemResetWarning,0812.0,5.00,000.00,018.7,017.2,000.0,027.2,020.0,6.9,0000.0,0000.62,0004.34,0000.30
2024-01-10 18:45:00,SystemResetWarning,0812.1,5.01,000.00,018.7,017.1,000.0,027.2,020.0,7.0,0000.0,0000.62,0003.85,0000.31
2024-01-10 18:46:00,SystemResetWarning,0812.1,5.01,000.00,018.7,017.1,000.0,027.2,020.0,7.0,0000.0,0000.62,0003.09,0000.31
2024-01-10 18:47:00,SystemResetWarning,0812.1,5.00,000.00,018.8,017.7,000.0,027.2,020.4,7.1,0000.0,0000.65,0002.66,0000.31
2024-01-10 18:48:00,SystemResetWarning,0812.1,5.00,000.00,018.9,018.9,000.0,027.2,020.9,7.1,0000.0,0000.66,0002.62,0000.32
2024-01-10 18:49:00,SystemResetWarning,0812.0,5.00,000.00,019.1,019.3,000.0,027.2,020.9,7.2,0000.0,0000.65,0002.44,0000.32
2024-01-10 18:50:00,SystemResetWarning,0811.9,4.99,000.00,019.1,019.2,000.0,027.2,020.6,7.1,0000.0,0000.64,0002.16,0000.32
2024-01-10 18:51:00,SystemResetWarning,0811.9,5.00,000.00,019.1,019.0,000.0,027.2,020.4,7.1,0000.0,0000.62,0002.08,0000.32
2024-01-10 18:52:00,SystemResetWarning,0811.8,5.00,000.00,019.1,018.7,000.0,027.2,020.2,7.2,0000.0,0000.61,0002.07,0000.31
2024-01-10 18:53:00,SystemResetWarning,0811.7,5.01,000.00,019.0,018.5,000.0,027.2,020.1,7.2,0000.0,0000.57,0001.96,0000.31
2024-01-10 18:54:00,SystemResetWarning,0811.6,4.99,000.00,019.0,018.2,000.0,027.2,020.0,7.0,0000.0,0000.56,0001.85,0000.32
2024-01-10 18:55:00,SystemResetWarning,0811.6,5.01,000.00,018.9,018.1,000.0,027.2,020.0,6.8,0000.0,0000.53,0001.70,0000.32
2024-01-10 18:56:00,SystemResetWarning,0811.7,5.01,000.00,018.8,017.9,000.0,027.2,020.0,6.9,0000.0,0000.54,0001.65,0000.34
2024-01-10 18:57:00,SystemResetWarning,0811.6,5.00,000.00,018.8,017.8,000.0,027.3,020.0,7.1,0000.0,0000.55,0001.68,0000.35
2024-01-10 18:58:00,SystemResetWarning,0811.7,5.00,000.00,018.7,017.6,000.0,027.3,020.0,7.1,0000.0,0000.55,0002.04,0000.37
2024-01-10 18:59:00,SystemResetWarning,0811.7,4.99,000.00,018.7,017.5,000.0,027.3,020.0,7.1,0000.0,0000.62,0002.99,0000.39
